TimeEDT,TemperatureF,Dew PointF,Humidity,Sea Level PressureIn,VisibilityMPH,Wind Direction,Wind SpeedMPH,Gust SpeedMPH,PrecipitationIn,Events,Conditions,WindDirDegrees,DateUTC
12:10 AM,50.4,47.3,89,30.22,10.0,NNE,6.9,-,N/A,,Mostly Cloudy,30,2012-10-09 04:10:00
12:31 AM,50.0,48.2,94,30.21,10.0,NNE,6.9,-,N/A,,Mostly Cloudy,30,2012-10-09 04:31:00
12:52 AM,50.0,46.4,87,30.20,10.0,NE,8.1,-,N/A,,Overcast,40,2012-10-09 04:52:00
1:14 AM,50.0,47.5,91,30.18,10.0,NE,8.1,-,N/A,,Overcast,40,2012-10-09 05:14:00
1:35 AM,50.2,47.3,90,30.19,10.0,NNE,8.1,-,N/A,,Overcast,30,2012-10-09 05:35:00
1:56 AM,50.4,47.7,90,30.20,10.0,NNE,6.9,-,N/A,,Mostly Cloudy,20,2012-10-09 05:56:00
2:18 AM,50.0,48.0,93,30.20,10.0,North,5.8,-,N/A,,Scattered Clouds,10,2012-10-09 06:18:00
2:39 AM,50.0,48.2,94,30.20,10.0,NNE,6.9,-,N/A,,Clear,20,2012-10-09 06:39:00
3:00 AM,50.0,48.4,94,30.20,10.0,NNE,9.2,-,N/A,,Scattered Clouds,20,2012-10-09 07:00:00
3:22 AM,49.6,48.6,96,30.19,10.0,NNE,8.1,-,N/A,,Mostly Cloudy,30,2012-10-09 07:22:00
3:43 AM,49.6,48.6,96,30.19,10.0,NE,9.2,-,N/A,,Mostly Cloudy,40,2012-10-09 07:43:00
4:04 AM,49.5,48.6,97,30.19,10.0,NNE,6.9,-,N/A,,Mostly Cloudy,30,2012-10-09 08:04:00
4:26 AM,49.1,48.2,97,30.19,10.0,NNE,10.4,-,N/A,,Light Drizzle,30,2012-10-09 08:26:00
4:47 AM,49.1,48.2,97,30.19,10.0,NNE,8.1,-,N/A,,Overcast,30,2012-10-09 08:47:00
5:30 AM,48.6,48.6,100,30.18,7.0,NE,9.2,-,0.01,,Overcast,40,2012-10-09 09:30:00
5:50 AM,48.2,48.2,100,30.19,10.0,NNE,8.1,-,N/A,,Overcast,20,2012-10-09 09:50:00
5:51 AM,48.7,48.7,100,30.19,10.0,NNE,9.2,-,0.01,,Mostly Cloudy,30,2012-10-09 09:51:00
6:12 AM,48.6,48.6,100,30.19,7.0,NNE,8.1,-,N/A,,Mostly Cloudy,30,2012-10-09 10:12:00
6:13 AM,48.6,48.6,100,30.19,7.0,NNE,8.1,-,N/A,,Overcast,30,2012-10-09 10:13:00
6:50 AM,48.2,48.2,100,30.19,7.0,NNE,9.2,-,N/A,,Light Drizzle,20,2012-10-09 10:50:00
7:52 AM,48.2,48.2,100,30.19,7.0,NNE,8.1,-,N/A,Rain,Light Rain,30,2012-10-09 11:52:00
8:52 AM,50.0,50.0,100,30.19,7.0,NE,9.2,-,N/A,,Mostly Cloudy,40,2012-10-09 12:52:00
9:50 AM,53.6,53.6,100,30.20,10.0,NE,9.2,-,N/A,,Mostly Cloudy,40,2012-10-09 13:50:00
10:55 AM,55.4,53.6,94,30.19,10.0,NE,10.4,-,N/A,,Mostly Cloudy,40,2012-10-09 14:55:00
11:53 AM,57.2,55.4,94,30.18,10.0,NNE,8.1,-,N/A,,Overcast,20,2012-10-09 15:53:00
12:50 PM,59.0,55.4,88,30.16,10.0,NNE,5.8,-,N/A,,Overcast,20,2012-10-09 16:50:00
1:50 PM,59.0,55.4,88,30.14,10.0,NE,6.9,-,N/A,,Overcast,50,2012-10-09 17:50:00
2:50 PM,59.0,55.4,88,30.13,10.0,NNE,9.2,-,N/A,,Overcast,20,2012-10-09 18:50:00
3:50 PM,59.0,55.4,88,30.13,10.0,NNE,8.1,-,N/A,,Overcast,20,2012-10-09 19:50:00
4:53 PM,59.0,55.4,88,30.12,10.0,NE,6.9,-,N/A,,Overcast,50,2012-10-09 20:53:00
5:53 PM,57.2,57.2,100,30.12,7.0,NE,5.8,-,N/A,,Overcast,40,2012-10-09 21:53:00
6:53 PM,57.2,57.2,100,30.12,5.0,NNE,5.8,-,N/A,,Overcast,30,2012-10-09 22:53:00
7:53 PM,57.2,57.2,100,30.12,5.0,NNE,5.8,-,N/A,,Overcast,20,2012-10-09 23:53:00
8:53 PM,55.4,55.4,100,30.12,7.0,NNE,4.6,-,N/A,,Overcast,20,2012-10-10 00:53:00
10:30 PM,56.1,56.1,100,30.11,4.0,Calm,Calm,-,N/A,,Overcast,0,2012-10-10 02:30:00
10:51 PM,55.9,55.9,100,30.11,3.0,NNE,4.6,-,N/A,,Overcast,20,2012-10-10 02:51:00
11:13 PM,55.9,55.9,100,30.10,3.0,Calm,Calm,-,N/A,,Overcast,0,2012-10-10 03:13:00
11:34 PM,55.4,55.4,100,30.09,3.0,Calm,Calm,-,N/A,,Overcast,0,2012-10-10 03:34:00
11:55 PM,55.9,55.9,100,30.09,2.5,NNE,3.5,-,N/A,,Overcast,30,2012-10-10 03:55:00